Weather History for KSDL - November, 2013

Change the Weather History Date:

Thursday, November 7, 2013

  Actual Average Record
Temperature  
Mean Temperature 66 °F -  
Max Temperature 82 °F 73 °F 89 °F (2007)
Min Temperature 51 °F 52 °F 42 °F (2000)
Cooling Degree Days 2    
Growing Degree Days 16 (Base 50)    
Moisture  
Dew Point 15 °F    
Average Humidity 16    
Maximum Humidity 29    
Minimum Humidity 6    
Precipitation  
Precipitation 0.00 in - - ()
Sea Level Pressure  
Sea Level Pressure 30.09 in    
Wind  
Wind Speed 2 mph (ENE)    
Max Wind Speed 9 mph    
Max Gust Speed -    
Visibility 10 miles    
Events      
Averages and records for this station are not official NWS values.
T = Trace of Precipitation, MM = Missing Value Source: NWS Daily Summary

Daily Weather History Graph

Daily Weather History Graph

Search for Another Location

Airport or City:

Trip Planner

Search our weather history database for the weather conditions in past years. The results will help you decide how hot, cold, wet, or windy it might be!

Date:

Astronomy

Nov. 07, 2013 Rise Set
Actual Time 6:52 AM MST 5:29 PM MST
Civil Twilight 6:26 AM MST 5:56 PM MST
Nautical Twilight 5:56 AM MST 6:25 PM MST
Astronomical Twilight 5:27 AM MST 6:54 PM MST
Moon 11:01 AM MST (11/7) 9:47 PM MST (11/7)
Length of Visible Light 11h 29m
Length of Day
10h 37m
Waxing Crescent, 23% of the Moon is Illuminated
Nov 7
Waxing Crescent
Nov 9
First Quarter
Nov 17
Full
Nov 25
Last Quarter
Dec 2
New

Hourly Weather History & Observations

Time (MST) Temp. Dew Point Humidity Pressure Visibility Wind Dir Wind Speed Gust Speed Precip Events Conditions
12:53 AM 55.0 °F 17.1 °F 23% 30.15 in 10.0 mi Calm Calm - N/A   Clear
1:53 AM 55.0 °F 17.1 °F 23% 30.15 in 10.0 mi Calm Calm - N/A   Clear
2:53 AM 54.0 °F 18.0 °F 24% 30.14 in 10.0 mi NW 3.5 mph - N/A   Clear
3:53 AM 53.1 °F 19.9 °F 27% 30.14 in 10.0 mi Calm Calm - N/A   Clear
4:53 AM 52.0 °F 19.9 °F 28% 30.14 in 10.0 mi Calm Calm - N/A   Clear
5:53 AM 51.1 °F 18.0 °F 27% 30.16 in 10.0 mi Calm Calm - N/A   Clear
6:53 AM 52.0 °F 18.0 °F 26% 30.17 in 10.0 mi Calm Calm - N/A   Clear
7:53 AM 57.9 °F 19.0 °F 22% 30.18 in 10.0 mi Calm Calm - N/A   Clear
8:53 AM 66.0 °F 19.0 °F 17% 30.17 in 10.0 mi Calm Calm - N/A   Clear
9:53 AM 72.0 °F 14.0 °F 11% 30.17 in 10.0 mi ESE 8.1 mph - N/A   Clear
10:53 AM 73.9 °F 12.0 °F 9% 30.17 in 10.0 mi ENE 6.9 mph - N/A   Clear
11:53 AM 77.0 °F 10.9 °F 8% 30.14 in 10.0 mi ESE 9.2 mph - N/A   Clear
12:53 PM 79.0 °F 10.9 °F 8% 30.09 in 10.0 mi East 6.9 mph - N/A   Clear
1:53 PM 80.1 °F 10.0 °F 7% 30.06 in 10.0 mi Variable 5.8 mph - N/A   Clear
2:53 PM 81.0 °F 8.1 °F 6% 30.03 in 10.0 mi ESE 4.6 mph - N/A   Clear
3:53 PM 82.0 °F 8.1 °F 6% 30.01 in 10.0 mi Variable 4.6 mph - N/A   Clear
4:53 PM 81.0 °F 8.1 °F 6% 30.01 in 10.0 mi Calm Calm - N/A   Clear
5:53 PM 73.9 °F 14.0 °F 10% 30.01 in 10.0 mi Calm Calm - N/A   Clear
6:53 PM 72.0 °F 14.0 °F 11% 30.02 in 10.0 mi North 3.5 mph - N/A   Clear
7:53 PM 72.0 °F 9.0 °F 9% 30.01 in 10.0 mi NE 4.6 mph - N/A   Clear
8:53 PM 66.0 °F 14.0 °F 13% 30.01 in 10.0 mi Calm Calm - N/A   Clear
9:53 PM 62.1 °F 19.9 °F 20% 30.02 in 10.0 mi Calm Calm - N/A   Clear
10:53 PM 60.1 °F 23.0 °F 24% 30.02 in 10.0 mi Calm Calm - N/A   Clear
11:53 PM 59.0 °F 27.0 °F 29% 30.01 in 10.0 mi Calm Calm - N/A   Clear